Skagway, AK

11:43 PM AKST on December 12, 2017 (GMT -0900)
Skagway

Weather History for PAGY - January, 2013

Change the Weather History Date:

Friday, January 11, 2013

  Actual Average Record
Temperature  
Mean Temperature 26 °F -  
Max Temperature 28 °F 27 °F 46 °F (1997)
Min Temperature 24 °F 20 °F -12 °F (1971)
Degree Days  
Heating Degree Days 39    
Moisture  
Dew Point 23 °F    
Average Humidity 88    
Maximum Humidity 93    
Minimum Humidity 81    
Precipitation  
Precipitation 0.00 in - - ()
Sea Level Pressure  
Sea Level Pressure 30.24 in    
Wind  
Wind Speed 2 mph (NE)    
Max Wind Speed 5 mph    
Max Gust Speed -    
Visibility 5 miles    
Events Snow    
Averages and records for this station are not official NWS values.
T = Trace of Precipitation, MM = Missing Value Source: NWS Daily Summary

Daily Weather History Graph

Daily Weather History Graph

Search for Another Location

Airport or City:

Trip Planner

Search our weather history database for the weather conditions in past years. The results will help you decide how hot, cold, wet, or windy it might be!

Date:

Astronomy

Jan. 11, 2013 Rise Set
Actual Time 8:49 AM AKST 3:29 PM AKST
Civil Twilight 7:57 AM AKST 4:22 PM AKST
Nautical Twilight 7:03 AM AKST 5:15 PM AKST
Astronomical Twilight 6:13 AM AKST 6:05 PM AKST
Moon 8:13 AM AKST (1/11) 4:15 PM AKST (1/11)
Length of Visible Light 8h 25m
Length of Day
6h 40m
New Moon, 0% of the Moon is Illuminated
Jan 11
New Moon
Jan 18
First Quarter
Jan 26
Full
Feb 3
Last Quarter
Feb 9
New

Hourly Weather History & Observations

Time (AKST) Temp. Windchill Dew Point Humidity Pressure Visibility Wind Dir Wind Speed Gust Speed Precip Events Conditions
12:53 AM 25.0 °F 20.7 °F 21.0 °F 85% 30.29 in 10.0 mi NE 3.5 mph - N/A   Overcast
1:53 AM 27.0 °F - 21.9 °F 81% 30.29 in 10.0 mi Calm Calm - N/A   Overcast
3:53 AM 25.0 °F - 21.9 °F 88% 30.26 in 10.0 mi Calm Calm - N/A   Overcast
4:53 AM 25.0 °F - 21.0 °F 85% 30.24 in 10.0 mi Calm Calm - N/A   Overcast
5:53 AM 24.1 °F 19.7 °F 21.0 °F 88% 30.23 in 10.0 mi NE 3.5 mph - N/A   Overcast
6:41 AM 24.8 °F 20.5 °F 21.2 °F 86% 30.24 in 4.0 mi NE 3.5 mph - N/A   Overcast
6:53 AM 25.0 °F 20.7 °F 21.9 °F 88% 30.23 in 4.0 mi NNE 3.5 mph - N/A   Overcast
7:11 AM 24.8 °F 20.5 °F 21.2 °F 86% 30.24 in 4.0 mi NE 3.5 mph - N/A   Mist
7:53 AM 24.1 °F 19.7 °F 21.0 °F 88% 30.22 in 8.0 mi NE 3.5 mph - 0.00 in   Overcast
8:02 AM 24.8 °F 20.5 °F 21.2 °F 86% 30.22 in 10.0 mi NE 3.5 mph - N/A   Unknown
8:53 AM 25.0 °F - 21.0 °F 85% 30.23 in 9.0 mi Calm Calm - N/A   Unknown
9:28 AM 24.8 °F 19.1 °F 21.2 °F 86% 30.23 in 1.8 mi NE 4.6 mph - 0.00 in Snow Light Snow
9:38 AM 24.8 °F 19.1 °F 21.2 °F 86% 30.23 in 1.2 mi NE 4.6 mph - 0.00 in Snow Light Snow
9:48 AM 24.8 °F 20.5 °F 21.2 °F 86% 30.23 in 1.5 mi NE 3.5 mph - 0.00 in Snow Light Snow
9:53 AM 25.0 °F - 21.9 °F 88% 30.23 in 1.5 mi Calm Calm - 0.00 in Snow Light Snow
10:19 AM 24.8 °F - 21.2 °F 86% 30.23 in 2.5 mi Calm Calm - 0.00 in Snow Light Snow
10:30 AM 24.8 °F - 21.2 °F 86% 30.23 in 5.0 mi Calm Calm - 0.00 in   Mist
10:53 AM 25.0 °F 20.7 °F 21.9 °F 88% 30.22 in 5.0 mi NNE 3.5 mph - 0.00 in   Mist
11:53 AM 26.1 °F - 24.1 °F 92% 30.22 in 5.0 mi Calm Calm - N/A   Mist
12:53 PM 27.0 °F - 23.0 °F 85% 30.21 in 8.0 mi Calm Calm - N/A   Unknown
1:53 PM 27.0 °F - 23.0 °F 85% 30.21 in 10.0 mi Calm Calm - N/A   Unknown
2:53 PM 28.0 °F - 24.1 °F 85% 30.22 in 5.0 mi Calm Calm - N/A   Mist
3:10 PM 28.4 °F - 24.8 °F 86% 30.22 in 1.8 mi Calm Calm - 0.00 in Snow Light Snow
3:20 PM 26.6 °F - 24.8 °F 93% 30.22 in 1.0 mi Calm Calm - 0.00 in Snow Light Snow
3:40 PM 28.4 °F - 24.8 °F 86% 30.22 in 2.0 mi Calm Calm - 0.00 in Snow Light Snow
3:53 PM 28.0 °F - 25.0 °F 88% 30.22 in 2.5 mi Calm Calm - 0.00 in Snow Light Snow
4:53 PM 28.0 °F - 25.0 °F 88% 30.22 in 2.5 mi Calm Calm - 0.00 in Snow Light Snow
5:28 PM 28.4 °F - 24.8 °F 86% 30.22 in 4.0 mi Calm Calm - 0.00 in Snow Light Snow
5:51 PM 26.6 °F - 24.8 °F 93% 30.22 in 2.5 mi Calm Calm - 0.00 in Snow Light Snow
5:53 PM 27.0 °F - 25.0 °F 92% 30.22 in 2.5 mi Calm Calm - 0.00 in Snow Light Snow
6:22 PM 26.6 °F - 24.8 °F 93% 30.23 in 4.0 mi Calm Calm - 0.00 in Snow Light Snow
6:53 PM 27.0 °F - 25.0 °F 92% 30.24 in 6.0 mi Calm Calm - 0.00 in Snow Light Snow
7:53 PM 27.0 °F - 25.0 °F 92% 30.25 in 4.0 mi Calm Calm - 0.00 in Snow Light Snow
8:53 PM 27.0 °F - 24.1 °F 89% 30.25 in 6.0 mi Calm Calm - 0.00 in Snow Light Snow
9:53 PM 27.0 °F - 25.0 °F 92% 30.28 in 7.0 mi Calm Calm - 0.00 in Snow Light Snow
10:53 PM 27.0 °F - 25.0 °F 92% 30.29 in 8.0 mi Calm Calm - 0.00 in   Unknown
11:53 PM 27.0 °F - 25.0 °F 92% 30.30 in 4.0 mi Calm Calm - 0.00 in Snow Light Snow